DT_LEITURA;HR_LEITURA;MED-PressaoAtm[hPa];VAL-TempExt[oC];VAL-UmidExt[%UR];VAL-TempInt[oC];VAL-UmidInt[%UR];Dir-Vento[grau];Vel-Vento[m/s];Precipitação[mm/h]
21/08/2026;00:00:00;1013,6;-36,1;0;27,0;84;6;0,4;0,0
21/08/2026;00:05:00;1013,6;-36,1;0;27,0;84;35;0,4;0,0
21/08/2026;00:10:00;1013,6;-36,1;0;27,0;84;51;0,3;0,0
21/08/2026;00:15:00;1013,5;-36,1;0;27,0;84;354;0,4;0,0
21/08/2026;00:20:00;1013,5;-36,1;0;27,1;85;345;0,3;0,0
21/08/2026;00:25:00;1013,4;-36,1;0;27,1;85;9;0,4;0,0
21/08/2026;00:30:00;1013,4;-36,1;0;27,1;85;316;0,5;0,0
21/08/2026;00:35:00;1013,3;-36,1;0;27,1;85;341;0,5;0,0
21/08/2026;00:40:00;1013,3;-36,1;0;27,2;85;332;0,4;0,0
21/08/2026;00:45:00;1013,2;-36,1;0;27,2;85;342;0,4;0,0
21/08/2026;00:50:00;1013,2;-36,1;0;27,2;85;360;0,4;0,0
21/08/2026;00:55:00;1013,1;-36,2;0;27,2;85;5;0,6;0,0
21/08/2026;01:00:00;1013,1;-36,2;0;27,2;85;7;0,5;0,0
21/08/2026;01:05:00;1013,0;-36,2;0;27,2;85;16;0,5;0,0
21/08/2026;01:10:00;1012,9;-36,2;0;27,2;85;351;0,4;0,0
21/08/2026;01:15:00;1012,9;-36,2;0;27,2;85;345;0,4;0,0
21/08/2026;01:20:00;1012,8;-36,2;0;27,2;85;6;0,4;0,0
21/08/2026;01:25:00;1012,7;-36,2;0;27,2;85;337;0,4;0,0
21/08/2026;01:30:00;1012,7;-36,2;0;27,2;85;355;0,5;0,0
21/08/2026;01:35:00;1012,7;-36,2;0;27,2;85;4;0,4;0,0
21/08/2026;01:40:00;1012,6;-36,2;0;27,3;85;355;0,4;0,0
21/08/2026;01:45:00;1012,6;-36,2;0;27,3;84;360;0,4;0,0
21/08/2026;01:50:00;1012,5;-36,2;0;27,3;84;12;0,4;0,0
21/08/2026;01:55:00;1012,6;-36,2;0;27,3;84;13;0,4;0,0
21/08/2026;02:00:00;1012,5;-36,2;0;27,3;84;350;0,5;0,0
21/08/2026;02:05:00;1012,5;-36,2;0;27,3;84;346;0,3;0,0
21/08/2026;02:10:00;1012,4;-36,3;0;27,3;84;351;0,5;0,0
21/08/2026;02:15:00;1012,4;-36,3;0;27,3;84;342;0,3;0,0
21/08/2026;02:20:00;1012,4;-36,3;0;27,3;84;8;0,4;0,0
21/08/2026;02:25:00;1012,3;-36,3;0;27,3;84;355;0,4;0,0
21/08/2026;02:30:00;1012,2;-36,3;0;27,3;84;4;0,5;0,0
21/08/2026;02:35:00;1012,1;-36,3;0;27,3;84;15;0,6;0,0
21/08/2026;02:40:00;1012,1;-36,3;0;27,3;84;11;0,4;0,0
21/08/2026;02:45:00;1012,1;-36,3;0;27,3;84;358;0,4;0,0
21/08/2026;02:50:00;1012,0;-36,3;0;27,2;84;31;0,5;0,0
21/08/2026;02:55:00;1012,0;-36,3;0;27,2;84;9;0,5;0,0
21/08/2026;03:00:00;1011,9;-36,3;0;27,2;84;346;0,5;0,0
21/08/2026;03:05:00;1011,9;-36,3;0;27,1;84;6;0,5;0,0
21/08/2026;03:10:00;1011,9;-36,3;0;27,1;85;349;0,5;0,0
21/08/2026;03:15:00;1011,8;-36,3;0;27,1;85;338;0,4;0,0
21/08/2026;03:20:00;1011,7;-36,3;0;27,1;85;342;0,6;0,0
21/08/2026;03:25:00;1011,7;-36,3;0;27,1;85;12;0,6;0,0
21/08/2026;03:30:00;1011,7;-36,3;0;27,1;85;4;0,4;0,0
21/08/2026;03:35:00;1011,7;-36,3;0;27,1;85;10;0,5;0,0
21/08/2026;03:40:00;1011,7;-36,4;0;27,1;85;332;0,3;0,0
21/08/2026;03:45:00;1011,7;-36,4;0;27,0;85;337;0,3;0,0
21/08/2026;03:50:00;1011,7;-36,4;0;27,0;85;353;0,4;0,0
21/08/2026;03:55:00;1011,7;-36,4;0;27,0;85;10;0,5;0,0
21/08/2026;04:00:00;1011,7;-36,4;0;27,0;85;6;0,4;0,0
21/08/2026;04:05:00;1011,8;-36,4;0;27,0;85;5;0,4;0,0
21/08/2026;04:10:00;1011,8;-36,4;0;27,0;85;74;0,3;0,0
21/08/2026;04:15:00;1011,8;-36,4;0;27,0;85;74;0,4;0,0
21/08/2026;04:20:00;1011,8;-36,4;0;27,0;85;5;0,5;0,0
21/08/2026;04:25:00;1011,9;-36,4;0;26,9;85;4;0,6;0,0
21/08/2026;04:30:00;1011,9;-36,4;0;26,9;85;10;0,4;0,0
21/08/2026;04:35:00;1012,0;-36,4;0;26,8;85;10;0,5;0,0
21/08/2026;04:40:00;1011,9;-36,4;0;26,8;85;357;0,7;0,0
21/08/2026;04:45:00;1012,0;-36,4;0;26,8;85;351;0,6;0,0
21/08/2026;04:50:00;1012,0;-36,4;0;26,7;86;6;0,8;0,0
21/08/2026;04:55:00;1012,0;-36,4;0;26,6;86;11;0,5;0,0
21/08/2026;05:00:00;1012,1;-36,4;0;26,6;86;36;0,5;0,0
21/08/2026;05:05:00;1012,1;-36,4;0;26,6;86;9;0,4;0,0
21/08/2026;05:10:00;1012,1;-36,4;0;26,5;86;15;0,4;0,0
21/08/2026;05:15:00;1012,1;-36,4;0;26,5;86;17;0,5;0,0
21/08/2026;05:20:00;1012,1;-36,4;0;26,4;86;6;0,5;0,0
21/08/2026;05:25:00;1012,0;-36,4;0;26,4;86;22;0,4;0,0
21/08/2026;05:30:00;1012,0;-36,4;0;26,4;86;26;0,3;0,0
21/08/2026;05:35:00;1012,1;-36,4;0;26,4;86;7;0,4;0,0
21/08/2026;05:40:00;1012,1;-36,4;0;26,3;87;323;0,4;0,0
21/08/2026;05:45:00;1012,2;-36,4;0;26,3;87;304;0,3;0,0
21/08/2026;05:50:00;1012,2;-36,4;0;26,3;87;301;0,3;0,0
21/08/2026;05:55:00;1012,2;-36,4;0;26,3;87;358;0,3;0,0
21/08/2026;06:00:00;1012,2;-36,4;0;26,3;87;8;0,4;0,0
21/08/2026;06:05:00;1012,3;-36,4;0;26,3;87;331;0,5;0,0
21/08/2026;06:10:00;1012,4;-36,4;0;26,2;87;2;0,5;0,0
21/08/2026;06:15:00;1012,5;-36,4;0;26,2;87;347;0,6;0,0
21/08/2026;06:20:00;1012,6;-36,4;0;26,2;87;344;0,5;0,0
21/08/2026;06:25:00;1012,5;-36,4;0;26,2;87;342;0,6;0,0
21/08/2026;06:30:00;1012,5;-36,4;0;26,2;87;359;0,6;0,0
21/08/2026;06:35:00;1012,6;-36,4;0;26,2;88;320;0,4;0,0
21/08/2026;06:40:00;1012,6;-36,4;0;26,2;88;15;0,5;0,0
21/08/2026;06:45:00;1012,6;-36,4;0;26,2;88;348;0,5;0,0
21/08/2026;06:50:00;1012,7;-36,4;0;26,2;88;360;0,4;0,0
21/08/2026;06:55:00;1012,7;-36,4;0;26,2;88;351;0,4;0,0
21/08/2026;07:00:00;1012,8;-36,4;0;26,3;87;331;0,4;0,0
21/08/2026;07:05:00;1012,8;-36,4;0;26,3;87;352;0,5;0,0
21/08/2026;07:10:00;1012,9;-36,4;0;26,3;87;6;0,5;0,0
21/08/2026;07:15:00;1013,0;-36,4;0;26,3;87;4;0,5;0,0
21/08/2026;07:20:00;1013,1;-36,4;0;26,4;87;5;0,6;0,0
21/08/2026;07:25:00;1013,1;-36,4;0;26,4;87;16;0,6;0,0
21/08/2026;07:30:00;1013,1;-36,4;0;26,5;87;48;0,4;0,0
21/08/2026;07:35:00;1013,2;-36,4;0;26,6;87;22;0,5;0,0
21/08/2026;07:40:00;1013,2;-36,4;0;26,6;87;3;0,5;0,0
21/08/2026;07:45:00;1013,3;-36,4;0;26,7;87;10;0,5;0,0
21/08/2026;07:50:00;1013,3;-36,4;0;26,9;86;2;0,7;0,0
21/08/2026;07:55:00;1013,4;-36,4;0;26,9;86;36;0,6;0,0
21/08/2026;08:00:00;1013,5;-36,5;0;27,1;86;16;0,6;0,0
21/08/2026;08:05:00;1013,6;-36,5;0;27,2;86;67;0,5;0,0
21/08/2026;08:10:00;1013,7;-36,5;0;27,3;85;45;0,6;0,0
21/08/2026;08:15:00;1013,8;-36,5;0;27,4;85;8;0,5;0,0
21/08/2026;08:20:00;1013,9;-36,5;0;27,5;85;346;0,5;0,0
21/08/2026;08:25:00;1014,0;-36,5;0;27,7;85;22;0,7;0,0
21/08/2026;08:30:00;1014,2;-36,5;0;27,9;84;12;0,7;0,0
21/08/2026;08:35:00;1014,3;-36,5;0;28,0;83;294;0,6;0,0
21/08/2026;08:40:00;1014,3;-36,5;0;28,2;83;322;0,4;0,0
21/08/2026;08:45:00;1014,4;-36,4;0;28,4;83;322;0,6;0,0
21/08/2026;08:50:00;1014,4;-36,4;0;28,6;82;345;0,6;0,0
21/08/2026;08:55:00;1014,5;-36,4;0;28,8;81;18;0,5;0,0
21/08/2026;09:00:00;1014,5;-36,4;0;29,0;81;11;0,5;0,0
21/08/2026;09:05:00;1014,5;-36,3;0;29,3;80;325;0,6;0,0
21/08/2026;09:10:00;1014,5;-36,2;0;29,5;79;298;0,6;0,0
21/08/2026;09:15:00;1014,5;-35,9;0;29,8;79;299;0,7;0,0
21/08/2026;09:20:00;1014,4;-35,5;0;30,0;77;340;0,6;0,0
21/08/2026;09:25:00;1014,4;-34,8;0;30,3;76;314;0,5;0,0
21/08/2026;09:30:00;1014,3;-33,3;0;30,8;74;282;0,7;0,0
21/08/2026;09:35:00;1014,3;-30,8;0;31,2;72;343;0,8;0,0
21/08/2026;09:40:00;1014,3;-28,0;0;31,5;70;289;0,8;0,0
21/08/2026;09:45:00;1014,2;-25,2;0;31,9;69;320;1,0;0,0
21/08/2026;09:50:00;1014,1;-22,7;0;32,3;67;213;0,7;0,0
21/08/2026;09:55:00;1014,0;-21,2;0;32,7;66;272;0,9;0,0
21/08/2026;10:00:00;1013,9;-20,5;0;33,1;64;164;0,9;0,0
21/08/2026;10:05:00;1013,9;-20,3;0;33,6;62;158;1,4;0,0
21/08/2026;10:10:00;1013,9;-20,3;0;33,9;60;148;1,4;0,0
21/08/2026;10:15:00;1013,8;-20,5;0;34,0;59;54;0,7;0,0
21/08/2026;10:20:00;1013,7;-20,5;0;34,3;58;340;0,7;0,0
21/08/2026;10:25:00;1013,8;-20,6;0;34,5;57;233;0,7;0,0
21/08/2026;10:30:00;1013,8;-20,8;0;34,7;57;164;1,2;0,0
21/08/2026;10:35:00;1013,8;-20,9;0;35,0;56;156;1,4;0,0
21/08/2026;10:40:00;1013,8;-21,0;0;35,1;54;133;0,8;0,0
21/08/2026;10:45:00;1013,7;-21,2;0;35,3;54;174;1,2;0,0
21/08/2026;10:50:00;1013,7;-21,3;0;35,4;53;132;1,9;0,0
21/08/2026;10:55:00;1013,6;-21,3;0;35,4;53;135;1,9;0,0
21/08/2026;11:00:00;1013,6;-21,4;0;35,4;53;141;1,6;0,0
21/08/2026;11:05:00;1013,6;-21,4;0;35,4;54;145;1,5;0,0
21/08/2026;11:10:00;1013,6;-21,5;0;35,6;53;140;1,6;0,0
21/08/2026;11:15:00;1013,6;-21,6;0;35,6;53;148;1,0;0,0
21/08/2026;11:20:00;1013,6;-21,6;0;35,8;53;137;1,9;0,0
21/08/2026;11:25:00;1013,6;-21,8;0;35,8;52;132;2,1;0,0
21/08/2026;11:30:00;1013,6;-21,8;0;35,8;52;132;1,5;0,0
21/08/2026;11:35:00;1013,5;-21,8;0;35,9;53;148;1,3;0,0
21/08/2026;11:40:00;1013,5;-21,9;0;36,1;52;137;1,9;0,0
21/08/2026;11:45:00;1013,4;-21,9;0;36,1;52;137;1,7;0,0
21/08/2026;11:50:00;1013,4;-21,9;0;35,9;53;134;1,9;0,0
21/08/2026;11:55:00;1013,3;-21,9;0;35,5;55;140;1,6;0,0
21/08/2026;12:00:00;1013,3;-21,9;0;35,5;55;140;1,7;0,0
21/08/2026;12:05:00;1013,2;-22,0;0;35,7;54;135;1,9;0,0
21/08/2026;12:10:00;1013,1;-22,0;0;35,9;54;142;1,8;0,0
21/08/2026;12:15:00;1013,0;-22,0;0;36,1;53;138;1,5;0,0
21/08/2026;12:20:00;1012,8;-22,2;0;36,2;53;146;1,8;0,0
21/08/2026;12:25:00;1012,8;-22,2;0;36,3;53;136;1,6;0,0
21/08/2026;12:30:00;1012,7;-22,3;0;36,4;52;130;1,9;0,0
21/08/2026;12:35:00;1012,7;-22,4;0;36,6;51;133;1,5;0,0
21/08/2026;12:40:00;1012,6;-22,4;0;36,8;51;142;1,8;0,0
21/08/2026;12:45:00;1012,5;-22,3;0;37,0;49;156;2,0;0,0
21/08/2026;12:50:00;1012,5;-22,3;0;37,0;49;155;1,7;0,0
21/08/2026;12:55:00;1012,4;-22,3;0;37,0;48;142;2,0;0,0
21/08/2026;13:00:00;1012,3;-22,2;0;37,1;48;144;1,4;0,0
21/08/2026;13:05:00;1012,2;-22,2;0;37,2;48;140;1,6;0,0
21/08/2026;13:10:00;1012,1;-22,3;0;37,4;47;172;1,5;0,0
21/08/2026;13:15:00;1012,0;-22,3;0;37,6;47;159;1,2;0,0
21/08/2026;13:20:00;1011,9;-22,2;0;37,8;48;167;1,2;0,0
21/08/2026;13:25:00;1011,9;-22,3;0;38,0;48;151;1,3;0,0
21/08/2026;13:30:00;1011,8;-22,3;0;38,2;48;127;1,4;0,0
21/08/2026;13:35:00;1011,7;-22,4;0;38,4;45;131;1,7;0,0
21/08/2026;13:40:00;1011,6;-22,5;0;38,6;44;141;1,8;0,0
21/08/2026;13:45:00;1011,5;-22,5;0;38,7;45;132;1,5;0,0
21/08/2026;13:50:00;1011,3;-22,5;0;38,8;45;141;1,9;0,0
21/08/2026;13:55:00;1011,2;-22,7;0;38,9;44;149;1,5;0,0
21/08/2026;14:00:00;1011,2;-22,9;0;39,0;45;154;1,4;0,0
21/08/2026;14:05:00;1011,2;-23,1;0;39,2;45;136;1,8;0,0
21/08/2026;14:10:00;1011,1;-23,2;0;39,2;42;128;2,0;0,0
21/08/2026;14:15:00;1011,1;-23,3;0;39,1;44;129;2,2;0,0
21/08/2026;14:20:00;1011,1;-23,4;0;38,9;44;137;2,0;0,0
21/08/2026;14:25:00;1011,1;-23,4;0;38,9;45;129;2,0;0,0
21/08/2026;14:30:00;1011,0;-23,4;0;38,8;44;144;1,8;0,0
21/08/2026;14:35:00;1010,9;-23,6;0;38,9;43;140;1,8;0,0
21/08/2026;14:40:00;1010,9;-23,2;0;38,9;43;158;1,3;0,0
21/08/2026;14:45:00;1010,9;-23,2;0;39,2;43;151;1,3;0,0
21/08/2026;14:50:00;1010,9;-23,3;0;39,4;42;141;1,5;0,0
21/08/2026;14:55:00;1010,8;-23,4;0;39,6;41;132;1,7;0,0
21/08/2026;15:00:00;1010,8;-23,5;0;39,7;41;135;1,9;0,0
21/08/2026;15:05:00;1010,8;-23,7;0;39,7;40;128;2,0;0,0
21/08/2026;15:10:00;1010,7;-23,7;0;39,7;40;136;1,5;0,0
21/08/2026;15:15:00;1010,7;-23,8;0;39,7;39;135;1,9;0,0
21/08/2026;15:20:00;1010,6;-23,9;0;39,7;38;151;1,7;0,0
21/08/2026;15:25:00;1010,6;-24,0;0;39,6;39;161;1,7;0,0
21/08/2026;15:30:00;1010,5;-24,1;0;39,6;39;131;1,9;0,0
21/08/2026;15:35:00;1010,5;-24,2;0;39,6;40;148;1,9;0,0
21/08/2026;15:40:00;1010,4;-24,6;0;39,6;41;144;1,4;0,0
21/08/2026;15:45:00;1010,3;-24,4;0;39,6;41;135;1,8;0,0
21/08/2026;15:50:00;1010,3;-24,3;0;39,6;41;138;1,7;0,0
21/08/2026;15:55:00;1010,2;-24,3;0;39,5;41;142;1,7;0,0
21/08/2026;16:00:00;1010,2;-24,4;0;39,4;42;151;1,2;0,0
21/08/2026;16:05:00;1010,2;-24,4;0;39,4;43;136;1,9;0,0
21/08/2026;16:10:00;1010,2;-24,4;0;39,2;43;148;1,6;0,0
21/08/2026;16:15:00;1010,2;-24,5;0;39,0;43;156;1,4;0,0
21/08/2026;16:20:00;1010,2;-24,6;0;38,6;44;135;1,9;0,0
21/08/2026;16:25:00;1010,2;-24,7;0;37,9;45;142;1,6;0,0
21/08/2026;16:30:00;1010,1;-24,9;0;37,3;47;154;1,4;0,0
21/08/2026;16:35:00;1010,1;-25,1;0;36,7;48;157;1,3;0,0
21/08/2026;16:40:00;1010,0;-25,2;0;36,3;49;138;1,3;0,0
21/08/2026;16:45:00;1010,1;-25,2;0;36,0;50;138;1,7;0,0
21/08/2026;16:50:00;1010,1;-25,3;0;35,7;51;148;1,6;0,0
21/08/2026;16:55:00;1010,2;-25,5;0;35,4;52;163;1,4;0,0
21/08/2026;17:00:00;1010,2;-25,6;0;35,1;53;164;1,3;0,0
21/08/2026;17:05:00;1010,2;-25,7;0;34,9;54;160;1,3;0,0
21/08/2026;17:10:00;1010,2;-25,8;0;34,6;55;145;1,5;0,0
21/08/2026;17:15:00;1010,2;-26,0;0;34,4;55;162;1,5;0,0
21/08/2026;17:20:00;1010,1;-26,3;0;34,2;56;144;1,6;0,0
21/08/2026;17:25:00;1010,1;-26,8;0;34,0;56;145;1,7;0,0
21/08/2026;17:30:00;1010,1;-27,2;0;33,8;57;130;1,6;0,0
21/08/2026;17:35:00;1010,2;-27,1;0;33,6;58;148;1,3;0,0
21/08/2026;17:40:00;1010,2;-27,2;0;33,5;58;134;1,7;0,0
21/08/2026;17:45:00;1010,2;-27,3;0;33,4;58;153;1,7;0,0
21/08/2026;17:50:00;1010,2;-27,6;0;33,3;59;156;1,6;0,0
21/08/2026;17:55:00;1010,3;-28,2;0;33,1;59;152;1,4;0,0
21/08/2026;18:00:00;1010,3;-28,6;0;33,0;60;159;1,3;0,0
21/08/2026;18:05:00;1010,3;-29,1;0;32,8;61;176;1,4;0,0
21/08/2026;18:10:00;1010,4;-29,7;0;32,7;61;156;1,6;0,0
21/08/2026;18:15:00;1010,3;-30,0;0;32,5;62;177;1,3;0,0
21/08/2026;18:20:00;1010,3;-30,3;0;32,4;62;178;1,1;0,0
21/08/2026;18:25:00;1010,3;-30,5;0;32,3;63;159;1,6;0,0
21/08/2026;18:30:00;1010,4;-30,7;0;32,2;63;153;1,5;0,0
21/08/2026;18:35:00;1010,5;-31,0;0;32,0;63;162;1,4;0,0
21/08/2026;18:40:00;1010,5;-31,3;0;31,9;64;169;1,6;0,0
21/08/2026;18:45:00;1010,6;-31,7;0;31,8;64;153;1,5;0,0
21/08/2026;18:50:00;1010,7;-31,9;0;31,7;64;175;1,6;0,0
21/08/2026;18:55:00;1010,8;-31,9;0;31,6;64;174;1,2;0,0
21/08/2026;19:00:00;1010,9;-31,9;0;31,5;65;163;1,6;0,0
21/08/2026;19:05:00;1010,9;-31,9;0;31,4;65;170;1,4;0,0
21/08/2026;19:10:00;1011,1;-31,9;0;31,3;66;170;1,1;0,0
21/08/2026;19:15:00;1011,1;-31,8;0;31,3;66;186;0,7;0,0
21/08/2026;19:20:00;1011,1;-31,8;0;31,3;66;231;0,7;0,0
21/08/2026;19:25:00;1011,2;-31,8;0;31,3;66;162;1,0;0,0
21/08/2026;19:30:00;1011,3;-31,6;0;31,2;66;172;1,2;0,0
21/08/2026;19:35:00;1011,3;-31,7;0;31,1;66;166;1,2;0,0
21/08/2026;19:40:00;1011,4;-31,6;0;31,0;67;180;1,2;0,0
21/08/2026;19:45:00;1011,4;-31,4;0;31,0;67;179;0,9;0,0
21/08/2026;19:50:00;1011,4;-31,2;0;30,9;67;167;0,8;0,0
21/08/2026;19:55:00;1011,4;-31,0;0;30,9;67;157;1,6;0,0
21/08/2026;20:00:00;1011,4;-30,9;0;30,8;68;162;1,5;0,0
21/08/2026;20:05:00;1011,4;-30,8;0;30,7;68;163;1,2;0,0
21/08/2026;20:10:00;1011,6;-30,7;0;30,7;69;153;1,3;0,0
21/08/2026;20:15:00;1011,7;-30,5;0;30,6;69;157;1,5;0,0
21/08/2026;20:20:00;1011,7;-30,6;0;30,6;69;165;1,2;0,0
21/08/2026;20:25:00;1011,8;-30,7;0;30,5;69;153;1,3;0,0
21/08/2026;20:30:00;1011,9;-30,8;0;30,4;69;140;1,7;0,0
21/08/2026;20:35:00;1012,1;-30,9;0;30,3;69;136;1,6;0,0
21/08/2026;20:40:00;1012,3;-31,0;0;30,3;69;139;1,4;0,0
21/08/2026;20:45:00;1012,4;-31,1;0;30,3;69;149;1,7;0,0
21/08/2026;20:50:00;1012,5;-31,1;0;30,2;70;162;1,1;0,0
21/08/2026;20:55:00;1012,5;-31,2;0;30,2;70;159;1,5;0,0
21/08/2026;21:00:00;1012,6;-31,3;0;30,2;69;151;1,7;0,0
21/08/2026;21:05:00;1012,7;-31,4;0;30,1;69;166;1,6;0,0
21/08/2026;21:10:00;1012,8;-31,5;0;30,1;69;174;1,4;0,0
21/08/2026;21:15:00;1012,9;-31,6;0;30,0;70;144;1,4;0,0
21/08/2026;21:20:00;1012,9;-31,7;0;30,0;70;141;1,4;0,0
21/08/2026;21:25:00;1013,0;-31,8;0;30,0;70;148;1,2;0,0
21/08/2026;21:30:00;1013,1;-32,0;0;29,9;71;153;1,4;0,0
21/08/2026;21:35:00;1013,3;-32,2;0;29,9;71;156;1,2;0,0
21/08/2026;21:40:00;1013,3;-32,3;0;29,8;70;141;1,6;0,0
21/08/2026;21:45:00;1013,3;-32,4;0;29,8;70;168;1,3;0,0
21/08/2026;21:50:00;1013,3;-32,5;0;29,7;71;158;1,1;0,0
21/08/2026;21:55:00;1013,3;-32,6;0;29,7;71;149;1,1;0,0
21/08/2026;22:00:00;1013,3;-32,7;0;29,7;71;143;1,3;0,0
21/08/2026;22:05:00;1013,4;-32,9;0;29,7;72;137;1,4;0,0
21/08/2026;22:10:00;1013,5;-33,0;0;29,6;72;134;1,9;0,0
21/08/2026;22:15:00;1013,5;-33,2;0;29,6;72;146;1,6;0,0
21/08/2026;22:20:00;1013,6;-33,3;0;29,5;72;154;1,3;0,0
21/08/2026;22:25:00;1013,6;-33,4;0;29,5;72;157;1,1;0,0
21/08/2026;22:30:00;1013,6;-33,5;0;29,4;72;159;1,0;0,0
21/08/2026;22:35:00;1013,6;-33,6;0;29,4;72;156;1,3;0,0
21/08/2026;22:40:00;1013,6;-33,7;0;29,4;72;156;1,5;0,0
21/08/2026;22:45:00;1013,5;-33,8;0;29,3;73;159;1,4;0,0
21/08/2026;22:50:00;1013,5;-33,9;0;29,3;73;158;1,2;0,0
21/08/2026;22:55:00;1013,5;-34,0;0;29,3;72;149;1,2;0,0
21/08/2026;23:00:00;1013,5;-34,0;0;29,3;72;150;1,4;0,0
21/08/2026;23:05:00;1013,5;-34,1;0;29,2;73;166;1,1;0,0
21/08/2026;23:10:00;1013,4;-34,1;0;29,2;73;147;1,2;0,0
21/08/2026;23:15:00;1013,4;-34,2;0;29,2;73;164;1,2;0,0
21/08/2026;23:20:00;1013,3;-34,2;0;29,2;73;183;1,0;0,0
21/08/2026;23:25:00;1013,3;-34,3;0;29,2;73;146;1,2;0,0
21/08/2026;23:30:00;1013,3;-34,3;0;29,1;73;146;1,3;0,0
21/08/2026;23:35:00;1013,3;-34,4;0;29,1;73;149;1,1;0,0
21/08/2026;23:40:00;1013,3;-34,4;0;29,1;73;144;1,0;0,0
21/08/2026;23:45:00;1013,3;-34,5;0;29,1;73;179;0,7;0,0
21/08/2026;23:50:00;1013,2;-34,5;0;29,1;73;145;1,1;0,0
21/08/2026;23:55:00;1013,3;-34,6;0;29,1;74;158;1,1;0,0
